DW7738 Weather Reports


Display with metric or nautical units.
time (UTC)temp
F
wind
direction
speed
MPH
gust
MPH
rain 1hr
in
rain 24hr
in
rain mn
in
humidity
%
barometer
mb
20260506172558 62 180 5.0 11.0 0.01 0.14 0.14 91 1008.8
20260506172058 62 164 5.0 18.0 0.02 0.14 0.14 91 1008.9
20260506171609 62 152 5.0 18.0 0.02 0.14 0.14 91 1009.0
20260506171059 62 181 7.0 13.0 0.02 0.14 0.14 91 1009.0
20260506170600 62 197 3.0 10.0 0.03 0.14 0.14 92 1008.9
20260506165559 62 190 3.0 8.0 0.04 0.14 0.14 93 1009.0
20260506165059 62 210 3.0 9.0 0.05 0.14 0.14 93 1009.0
20260506164613 61 178 3.0 9.0 0.05 0.14 0.14 93 1009.0
20260506164058 61 163 5.0 12.0 0.06 0.14 0.14 93 1008.8
20260506163558 61 203 4.0 14.0 0.06 0.13 0.13 92 1008.7
20260506163105 61 190 7.0 18.0 0.07 0.13 0.13 92 1008.6
20260506162558 61 189 8.0 18.0 0.07 0.13 0.13 92 1008.7
20260506162100 62 148 7.0 17.0 0.07 0.12 0.12 92 1008.8
20260506161557 62 187 7.0 15.0 0.07 0.12 0.12 92 1009.0
20260506161100 62 142 6.0 14.0 0.07 0.12 0.12 92 1009.3
20260506160559 62 185 5.0 14.0 0.07 0.11 0.11 91 1009.5
20260506160110 62 173 6.0 11.0 0.06 0.10 0.10 91 1009.6
20260506155558 62 196 5.0 10.0 0.07 0.10 0.10 91 1009.7
20260506155059 62 186 5.0 10.0 0.07 0.09 0.09 91 1009.8
20260506154558 62 179 4.0 10.0 0.07 0.09 0.09 91 1009.9
20260506154059 62 187 4.0 8.0 0.07 0.08 0.08 91 1010.0
20260506153559 62 241 3.0 8.0 0.06 0.07 0.07 91 1010.2
20260506153101 62 205 5.0 8.0 0.06 0.06 0.06 91 1010.1
20260506152559 62 188 3.0 13.0 0.06 0.06 0.06 90 1010.2
20260506152100 63 174 4.0 13.0 0.05 0.05 0.05 90 1010.2
20260506151558 63 203 3.0 13.0 0.05 0.05 0.05 89 1010.1
20260506151059 63 172 4.0 13.0 0.05 0.05 0.05 89 1009.8
20260506150558 63 189 5.0 8.0 0.04 0.04 0.04 88 1009.8
20260506150057 63 188 5.0 10.0 0.04 0.04 0.04 88 1009.9
20260506145601 63 151 4.0 10.0 0.03 0.03 0.03 87 1010.0
20260506145058 64 202 5.0 10.0 0.02 0.02 0.02 85 1009.8
20260506144556 64 150 3.0 9.0 0.02 0.02 0.02 84 1009.8
20260506144058 65 182 3.0 10.0 0.01 0.01 0.01 83 1010.0
20260506143559 65 166 6.0 15.0 0.01 0.01 0.01 80 1010.0
20260506143058 66 214 6.0 15.0 0.00 0.00 0.00 77 1010.1
20260506142559 66 178 5.0 11.0 0.00 0.00 0.00 77 1010.2
20260506142058 66 196 6.0 12.0 0.00 0.00 0.00 77 1010.0
20260506141611 67 199 5.0 12.0 0.00 0.00 0.00 77 1009.9
20260506141059 67 179 4.0 18.0 0.00 0.00 0.00 76 1009.9
20260506140600 67 184 7.0 18.0 0.00 0.00 0.00 76 1009.8
20260506140101 67 165 6.0 14.0 0.00 0.00 0.00 77 1009.7
20260506135558 67 154 5.0 15.0 0.00 0.00 0.00 77 1009.8
20260506135058 66 268 7.0 15.0 0.00 0.00 0.00 77 1009.7
20260506134601 66 192 6.0 15.0 0.00 0.00 0.00 77 1009.9
20260506134059 66 209 4.0 13.0 0.00 0.00 0.00 76 1009.9
20260506133559 66 168 3.0 13.0 0.00 0.00 0.00 76 1009.9
20260506133107 66 239 5.0 13.0 0.00 0.00 0.00 76 1009.9
20260506132558 66 196 5.0 11.0 0.00 0.00 0.00 76 1010.0
20260506132059 66 134 4.0 11.0 0.00 0.00 0.00 76 1010.0
20260506131601 66 250 4.0 12.0 0.00 0.00 0.00 76 1010.1
20260506131059 66 202 6.0 14.0 0.00 0.00 0.00 76 1010.1
20260506130600 66 159 3.0 14.0 0.00 0.00 0.00 76 1010.2
20260506130100 66 216 4.0 14.0 0.00 0.00 0.00 76 1010.2
20260506125558 66 183 6.0 11.0 0.00 0.00 0.00 76 1010.3
20260506125058 66 178 5.0 13.0 0.00 0.00 0.00 76 1010.2
20260506124600 66 201 5.0 13.0 0.00 0.00 0.00 76 1010.2
20260506124058 66 175 5.0 9.0 0.00 0.00 0.00 77 1010.1
20260506123600 66 238 4.0 9.0 0.00 0.00 0.00 77 1010.2
20260506123059 66 222 3.0 13.0 0.00 0.00 0.00 77 1010.1
20260506122559 66 213 8.0 13.0 0.00 0.00 0.00 77 1009.9
20260506122059 66 184 6.0 13.0 0.00 0.00 0.00 77 1009.9
20260506121610 66 232 6.0 13.0 0.00 0.00 0.00 77 1010.0
20260506121059 65 134 6.0 16.0 0.00 0.00 0.00 77 1009.9
20260506120559 65 203 8.0 16.0 0.00 0.00 0.00 78 1009.9
20260506120125 65 219 6.0 16.0 0.00 0.00 0.00 78 1010.0
20260506115559 65 165 5.0 15.0 0.00 0.00 0.00 78 1009.9
20260506115059 65 194 5.0 16.0 0.00 0.00 0.00 78 1009.9
20260506114559 65 173 8.0 16.0 0.00 0.00 0.00 78 1009.9
20260506114058 65 201 8.0 16.0 0.00 0.00 0.00 78 1009.8
20260506113558 65 165 8.0 20.0 0.00 0.00 0.00 78 1009.8
20260506113109 65 173 8.0 20.0 0.00 0.00 0.00 78 1009.8
20260506112558 65 198 7.0 14.0 0.00 0.00 0.00 78 1009.8
20260506112058 65 175 8.0 14.0 0.00 0.00 0.00 78 1009.9
20260506111559 65 206 7.0 14.0 0.00 0.00 0.00 78 1009.8
20260506111059 65 189 8.0 14.0 0.00 0.00 0.00 78 1009.7
20260506110603 65 168 7.0 13.0 0.00 0.00 0.00 78 1009.7
20260506105600 65 174 5.0 12.0 0.00 0.00 0.00 78 1009.6
20260506105059 65 213 8.0 12.0 0.00 0.00 0.00 78 1009.6
20260506104602 65 193 6.0 13.0 0.00 0.00 0.00 78 1009.5
20260506104059 65 166 8.0 13.0 0.00 0.00 0.00 78 1009.5
20260506103559 65 146 6.0 11.0 0.00 0.00 0.00 78 1009.4
20260506103058 65 178 6.0 11.0 0.00 0.00 0.00 78 1009.4
20260506102600 65 180 3.0 7.0 0.00 0.00 0.00 78 1009.4
20260506102059 65 185 4.0 10.0 0.00 0.00 0.00 78 1009.4
20260506101603 65 165 4.0 10.0 0.00 0.00 0.00 78 1009.4
20260506101059 65 140 4.0 10.0 0.00 0.00 0.00 78 1009.4
20260506100559 65 166 4.0 9.0 0.00 0.00 0.00 78 1009.3
20260506100059 65 176 4.0 11.0 0.00 0.00 0.00 78 1009.4
20260506095559 65 153 4.0 11.0 0.00 0.06 0.00 78 1009.5
20260506095059 66 165 3.0 11.0 0.00 0.06 0.00 77 1009.4
20260506094600 66 165 6.0 13.0 0.00 0.06 0.00 77 1009.3
20260506094058 66 165 4.0 13.0 0.00 0.06 0.00 77 1009.3
20260506093559 66 171 5.0 10.0 0.00 0.06 0.00 76 1009.2
20260506093101 66 198 6.0 11.0 0.00 0.06 0.00 76 1009.2
20260506092559 66 163 7.0 11.0 0.00 0.06 0.00 76 1009.1
20260506092059 66 211 6.0 14.0 0.00 0.06 0.00 76 1009.2
20260506091600 67 207 7.0 14.0 0.00 0.06 0.00 75 1009.2
20260506091059 66 224 6.0 10.0 0.00 0.06 0.00 75 1009.2
20260506090558 66 186 5.0 10.0 0.00 0.06 0.00 75 1009.3
20260506090059 66 176 5.0 11.0 0.00 0.06 0.00 75 1009.3
20260506085600 66 173 5.0 11.0 0.00 0.06 0.00 75 1009.3
20260506085058 66 171 4.0 12.0 0.00 0.06 0.00 75 1009.4
20260506084558 66 144 7.0 12.0 0.00 0.06 0.00 75 1009.4
20260506084059 66 200 7.0 12.0 0.00 0.06 0.00 75 1009.5
20260506083559 66 166 5.0 10.0 0.00 0.06 0.00 75 1009.4
20260506083059 66 161 5.0 11.0 0.00 0.06 0.00 75 1009.4
20260506082559 66 184 3.0 11.0 0.00 0.06 0.00 75 1009.5
20260506082101 66 184 5.0 8.0 0.00 0.06 0.00 74 1009.4
20260506081602 66 173 4.0 8.0 0.00 0.06 0.00 74 1009.4
20260506081059 66 149 3.0 8.0 0.00 0.06 0.00 74 1009.5
20260506080601 66 175 5.0 8.0 0.00 0.06 0.00 73 1009.4
20260506080110 67 151 4.0 11.0 0.00 0.06 0.00 73 1009.5
20260506073101 67 169 6.0 11.0 0.00 0.06 0.00 70 1009.5
20260506072600 67 202 4.0 10.0 0.00 0.06 0.00 69 1009.6
20260506072059 68 189 5.0 17.0 0.00 0.06 0.00 69 1009.7
20260506071559 68 177 7.0 17.0 0.00 0.06 0.00 69 1009.7
20260506071058 68 163 4.0 11.0 0.00 0.06 0.00 69 1009.6
20260506070559 68 172 8.0 13.0 0.00 0.06 0.00 68 1009.7
20260506070116 68 173 7.0 13.0 0.00 0.06 0.00 68 1009.7
20260506062100 68 189 4.0 9.0 0.00 0.06 0.00 66 1010.1
20260506061601 68 189 5.0 9.0 0.00 0.06 0.00 66 1010.1
20260506061059 68 165 4.0 8.0 0.00 0.06 0.00 66 1010.2
20260506060600 68 184 3.0 9.0 0.00 0.06 0.00 66 1010.2
20260506051058 69 146 7.0 12.0 0.00 0.06 0.00 65 1010.6
20260506050558 68 184 5.0 11.0 0.00 0.06 0.00 65 1010.7
20260506050113 68 185 6.0 11.0 0.00 0.06 0.00 65 1010.6
20260506045057 68 194 4.0 10.0 0.00 0.06 0.00 65 1010.6
20260506044603 68 194 6.0 11.0 0.00 0.06 0.00 65 1010.7
20260506044100 68 138 6.0 15.0 0.00 0.06 0.00 65 1010.7
20260506043600 68 213 6.0 15.0 0.00 0.06 0.00 65 1010.7
20260506043056 68 188 6.0 14.0 0.00 0.06 0.00 65 1010.7
20260506042600 68 209 6.0 14.0 0.00 0.06 0.00 65 1010.8
20260506042102 68 178 6.0 9.0 0.00 0.06 0.00 65 1010.6
20260506041600 68 209 5.0 10.0 0.00 0.06 0.00 65 1010.6
20260506041058 68 184 5.0 11.0 0.00 0.06 0.00 65 1010.6
20260506040559 68 175 7.0 11.0 0.00 0.06 0.00 65 1010.6
20260506040101 69 153 4.0 11.0 0.00 0.06 0.00 64 1010.6
20260506035558 69 149 6.0 13.0 0.00 0.06 0.06 63 1010.6
20260506035058 69 168 4.0 13.0 0.00 0.06 0.06 63 1010.6
20260506034600 69 159 5.0 15.0 0.00 0.06 0.06 63 1010.6
20260506034058 69 190 6.0 15.0 0.00 0.06 0.06 62 1010.6
20260506033603 70 150 5.0 12.0 0.00 0.06 0.06 62 1010.5
20260506033059 70 169 7.0 12.0 0.00 0.06 0.06 61 1010.5
20260506032559 70 184 7.0 13.0 0.00 0.06 0.06 60 1010.4
20260506032059 70 157 5.0 13.0 0.00 0.06 0.06 60 1010.4
20260506031603 70 169 7.0 13.0 0.00 0.06 0.06 59 1010.5
20260506031100 70 188 6.0 12.0 0.00 0.06 0.06 58 1010.5
20260506030555 71 171 6.0 12.0 0.00 0.06 0.06 57 1010.5
20260506030114 71 163 6.0 10.0 0.00 0.06 0.06 56 1010.4
20260506025555 71 157 5.0 8.0 0.00 0.06 0.06 56 1010.4
20260506025100 71 180 4.0 8.0 0.00 0.06 0.06 54 1010.4
20260506024559 72 171 3.0 9.0 0.00 0.06 0.06 54 1010.4
20260506024055 72 180 4.0 10.0 0.00 0.06 0.06 53 1010.4
20260506023559 72 176 6.0 14.0 0.00 0.06 0.06 53 1010.6
20260506023100 72 164 6.0 14.0 0.00 0.06 0.06 52 1010.5
20260506022559 73 205 4.0 12.0 0.00 0.06 0.06 52 1010.6
20260506022059 73 166 5.0 12.0 0.00 0.06 0.06 51 1010.6
20260506021603 73 187 6.0 9.0 0.00 0.06 0.06 51 1010.5
20260506021057 73 150 5.0 13.0 0.00 0.06 0.06 51 1010.4
20260506020556 73 194 6.0 13.0 0.00 0.06 0.06 50 1010.5
20260506020057 73 205 6.0 12.0 0.00 0.06 0.06 50 1010.4
20260506015556 74 213 6.0 11.0 0.00 0.06 0.06 50 1010.6
20260506015101 74 173 5.0 9.0 0.00 0.06 0.06 49 1010.5
20260506014602 74 187 4.0 11.0 0.00 0.06 0.06 49 1010.4
20260506014059 74 153 5.0 13.0 0.00 0.06 0.06 48 1010.4
20260506013557 74 189 7.0 16.0 0.00 0.06 0.06 48 1010.3
20260506013101 75 159 8.0 16.0 0.00 0.06 0.06 48 1010.1
20260506012559 75 203 5.0 13.0 0.00 0.06 0.06 49 1010.1
20260506012059 75 181 6.0 13.0 0.00 0.06 0.06 49 1010.1
20260506011600 75 145 7.0 16.0 0.00 0.06 0.06 49 1009.9
20260506011059 75 175 7.0 17.0 0.00 0.06 0.06 49 1009.9
20260506010559 74 183 7.0 17.0 0.00 0.06 0.06 50 1009.9
20260506005601 75 186 5.0 8.0 0.00 0.06 0.06 49 1009.7
20260506005058 75 180 4.0 9.0 0.00 0.06 0.06 49 1009.7
20260506004629 75 167 4.0 10.0 0.00 0.06 0.06 49 1009.7
20260506004058 75 186 5.0 10.0 0.00 0.06 0.06 48 1009.7
20260506003559 75 166 4.0 7.0 0.00 0.06 0.06 48 1009.6
20260506003101 75 165 4.0 8.0 0.00 0.06 0.06 47 1009.5
20260506002558 76 170 4.0 11.0 0.00 0.06 0.06 46 1009.4
20260506002103 76 190 4.0 11.0 0.00 0.06 0.06 45 1009.4
20260506001601 76 189 5.0 11.0 0.00 0.06 0.06 44 1009.4
20260506001058 77 175 5.0 10.0 0.00 0.06 0.06 43 1009.3
20260506000600 77 173 5.0 15.0 0.00 0.06 0.06 43 1009.2
20260506000100 77 206 4.0 15.0 0.00 0.06 0.06 42 1009.2
20260505235603 77 194 6.0 13.0 0.00 0.06 0.06 42 1009.1
20260505235059 78 169 6.0 15.0 0.00 0.06 0.06 41 1009.1
20260505234618 78 205 6.0 15.0 0.00 0.06 0.06 41 1009.0
20260505234059 78 178 7.0 19.0 0.00 0.06 0.06 40 1008.9
20260505233558 78 184 7.0 20.0 0.00 0.06 0.06 40 1009.0
20260505233058 78 190 8.0 20.0 0.00 0.06 0.06 40 1009.0
20260505232559 79 141 6.0 20.0 0.00 0.06 0.06 40 1009.0
20260505232059 79 259 8.0 20.0 0.00 0.06 0.06 39 1009.0
20260505231602 79 189 6.0 13.0 0.00 0.06 0.06 38 1008.9
20260505231059 79 141 4.0 15.0 0.00 0.06 0.06 38 1008.8
20260505230559 79 217 6.0 15.0 0.00 0.06 0.06 38 1008.9
20260505230100 80 210 6.0 19.0 0.00 0.06 0.06 37 1009.0
20260505225559 80 223 7.0 19.0 0.00 0.06 0.06 37 1008.8
20260505225059 80 225 9.0 19.0 0.00 0.06 0.06 37 1008.7
20260505224600 80 192 9.0 19.0 0.00 0.06 0.06 37 1008.7
20260505224059 80 185 7.0 24.0 0.00 0.06 0.06 37 1008.7
20260505223601 80 197 9.0 24.0 0.00 0.06 0.06 37 1008.8
20260505223105 80 184 8.0 18.0 0.00 0.06 0.06 36 1008.7
20260505222559 80 261 9.0 15.0 0.00 0.06 0.06 37 1008.8
20260505222100 80 241 6.0 11.0 0.00 0.06 0.06 37 1008.7
20260505221613 80 162 4.0 17.0 0.00 0.06 0.06 38 1008.7
20260505221059 80 202 6.0 17.0 0.00 0.06 0.06 37 1008.7
20260505220602 80 179 6.0 15.0 0.00 0.06 0.06 38 1008.7
20260505220138 80 199 8.0 15.0 0.00 0.06 0.06 37 1008.8
20260505215558 80 200 4.0 18.0 0.00 0.06 0.06 37 1008.6
20260505215059 80 272 8.0 28.0 0.00 0.06 0.06 37 1008.7
20260505214617 80 200 10.0 28.0 0.00 0.06 0.06 37 1008.7
20260505214100 80 207 7.0 20.0 0.00 0.06 0.06 38 1008.9
20260505213602 80 182 8.0 20.0 0.00 0.06 0.06 37 1008.6
20260505213057 80 256 8.0 27.0 0.00 0.06 0.06 37 1008.5
20260505212603 80 236 12.0 27.0 0.00 0.06 0.06 37 1008.6
20260505212059 81 166 5.0 16.0 0.00 0.06 0.06 37 1008.6
20260505211612 81 186 4.0 20.0 0.00 0.06 0.06 36 1008.4
20260505211056 81 304 4.0 20.0 0.00 0.06 0.06 37 1008.5
20260505210558 80 150 9.0 26.0 0.00 0.06 0.06 37 1008.5
20260505210059 80 229 12.0 26.0 0.00 0.06 0.06 37 1008.4
20260505205559 80 215 8.0 23.0 0.00 0.06 0.06 37 1008.3
20260505205058 81 162 7.0 23.0 0.00 0.06 0.06 36 1008.3
20260505204602 81 180 13.0 27.0 0.00 0.06 0.06 36 1008.4
20260505204059 81 254 7.0 27.0 0.00 0.06 0.06 36 1008.5
20260505203557 81 208 6.0 20.0 0.00 0.06 0.06 35 1008.5
20260505203101 81 227 9.0 20.0 0.00 0.06 0.06 37 1008.5
20260505202559 81 182 8.0 18.0 0.00 0.06 0.06 36 1008.5
20260505202100 81 134 8.0 25.0 0.00 0.06 0.06 36 1008.7
20260505201608 81 229 6.0 25.0 0.00 0.06 0.06 35 1008.7
20260505201059 81 195 13.0 24.0 0.00 0.06 0.06 35 1008.6
20260505200559 80 205 14.0 24.0 0.00 0.06 0.06 35 1008.8
20260505200106 80 142 12.0 24.0 0.00 0.06 0.06 34 1008.7
20260505195600 81 187 11.0 22.0 0.00 0.06 0.06 33 1008.7
20260505195058 81 211 7.0 24.0 0.00 0.06 0.06 34 1008.9
20260505194607 81 200 10.0 26.0 0.00 0.06 0.06 33 1008.8
20260505194059 81 193 11.0 26.0 0.00 0.06 0.06 32 1008.7
20260505193559 81 254 12.0 27.0 0.00 0.06 0.06 33 1008.8
20260505193103 81 167 7.0 27.0 0.00 0.06 0.06 33 1008.7
20260505192559 81 193 10.0 24.0 0.00 0.06 0.06 32 1008.7
20260505192102 81 211 14.0 26.0 0.00 0.06 0.06 32 1008.7
20260505191557 82 197 11.0 26.0 0.00 0.06 0.06 33 1008.7
20260505191059 82 206 7.0 23.0 0.00 0.06 0.06 34 1008.9
20260505190601 81 143 14.0 26.0 0.00 0.06 0.06 32 1009.0
20260505185559 82 190 15.0 28.0 0.00 0.06 0.06 32 1009.1
20260505185059 82 171 2.0 28.0 0.00 0.06 0.06 33 1009.2
20260505184600 82 210 9.0 29.0 0.00 0.06 0.06 34 1009.2
20260505184059 82 225 12.0 29.0 0.00 0.06 0.06 34 1009.1
20260505183602 82 254 10.0 25.0 0.00 0.06 0.06 34 1009.1
20260505183102 82 205 11.0 25.0 0.00 0.06 0.06 35 1009.2
20260505182559 82 352 7.0 29.0 0.00 0.06 0.06 35 1009.2
20260505182059 82 221 10.0 29.0 0.00 0.06 0.06 33 1009.3
20260505181600 82 168 12.0 26.0 0.00 0.06 0.06 35 1009.3
20260505181059 82 146 10.0 27.0 0.00 0.06 0.06 35 1009.4
20260505180559 82 199 10.0 27.0 0.00 0.06 0.06 35 1009.8
20260505175559 82 198 13.0 25.0 0.00 0.06 0.06 37 1009.6
20260505175059 82 192 9.0 18.0 0.00 0.06 0.06 40 1009.5
20260505174600 82 214 8.0 18.0 0.00 0.06 0.06 39 1009.7
20260505174059 81 173 10.0 18.0 0.00 0.06 0.06 40 1009.5
20260505173558 81 173 5.0 18.0 0.00 0.06 0.06 41 1009.5
20260505173100 81 236 10.0 20.0 0.00 0.06 0.06 39 1009.6